,,Stat6,,Stat2,,Stat8,,Stat9,,Stat10,,Wind1,,Wind1,
time,status,PA1M_AVG,status,PR1M_SUM,status,RH1M_AVG,status,SR1M_AVG,status,TA1M_AVG,status,W1dAve1m,status,W1sAve1m,
2007-04-15, 00:00:00,VALID,918.506,VALID,0,VALID,100,VALID,-0.0169808,VALID,20.8302,VALID,187,VALID,0.119978,
2007-04-15, 00:01:00,VALID,918.506,VALID,0,VALID,100,VALID,-0.0339617,VALID,20.8619,VALID,187,VALID,0.117733,
2007-04-15, 00:02:00,VALID,918.498,VALID,0,VALID,100,VALID,-0.0339617,VALID,20.8689,VALID,187,VALID,0,
2007-04-15, 00:03:00,VALID,918.506,VALID,0,VALID,100,VALID,0,VALID,20.8421,VALID,187,VALID,0,
2007-04-15, 00:04:00,VALID,918.495,VALID,0,VALID,100,VALID,0.0339617,VALID,20.8291,VALID,187,VALID,0,
2007-04-15, 00:05:00,VALID,918.485,VALID,0,VALID,100,VALID,-0.0169808,VALID,20.7929,VALID,187,VALID,0,
2007-04-15, 00:06:00,VALID,918.467,VALID,0,VALID,100,VALID,-0.0169808,VALID,20.7834,VALID,187,VALID,0,
2007-04-15, 00:07:00,VALID,918.462,VALID,0,VALID,100,VALID,0,VALID,20.7707,VALID,187,VALID,0,
2007-04-15, 00:08:00,VALID,918.45,VALID,0,VALID,100,VALID,0.0169808,VALID,20.758,VALID,187,VALID,0.00332031,
2007-04-15, 00:09:00,VALID,918.44,VALID,0,VALID,100,VALID,0,VALID,20.7547,VALID,187,VALID,0.284624,
2007-04-15, 00:10:00,VALID,918.432,VALID,0.2,VALID,100,VALID,-0.0339617,VALID,20.7802,VALID,187,VALID,0.287388,
2007-04-15, 00:11:00,VALID,918.436,VALID,0,VALID,100,VALID,0.0339617,VALID,20.8059,VALID,187,VALID,0.165179,
2007-04-15, 00:12:00,VALID,918.43,VALID,0,VALID,100,VALID,0,VALID,20.8091,VALID,187,VALID,0.132813,
2007-04-15, 00:13:00,VALID,918.418,VALID,0,VALID,100,VALID,-0.0169808,VALID,20.8069,VALID,166,VALID,0.278832,
2007-04-15, 00:14:00,VALID,918.4,VALID,0,VALID,100,VALID,0,VALID,20.7975,VALID,105,VALID,0.217478,
2007-04-15, 00:15:00,VALID,918.393,VALID,0,VALID,100,VALID,-0.0169808,VALID,20.784,VALID,105,VALID,0.191229,
2007-04-15, 00:16:00,VALID,918.394,VALID,0,VALID,100,VALID,-0.0169808,VALID,20.7475,VALID,104,VALID,0.436257,
2007-04-15, 00:17:00,VALID,918.365,VALID,0,VALID,100,VALID,0.0169808,VALID,20.7315,VALID,104,VALID,0.329241,
2007-04-15, 00:18:00,VALID,918.352,VALID,0,VALID,100,VALID,0,VALID,20.722,VALID,104,VALID,0.331854,
2007-04-15, 00:19:00,VALID,918.327,VALID,0,VALID,100,VALID,-0.0169808,VALID,20.6893,VALID,104,VALID,0.302827,
2007-04-15, 00:20:00,VALID,918.303,VALID,0,VALID,100,VALID,0,VALID,20.6698,VALID,104,VALID,0.451308,
2007-04-15, 00:21:00,VALID,918.278,VALID,0,VALID,100,VALID,0,VALID,20.6701,VALID,104,VALID,0.210366,
2007-04-15, 00:22:00,VALID,918.272,VALID,0.2,VALID,100,VALID,0,VALID,20.6633,VALID,104,VALID,0.183966,
2007-04-15, 00:23:00,VALID,918.251,VALID,0,VALID,100,VALID,-0.0169808,VALID,20.6471,VALID,112,VALID,0.47619,
2007-04-15, 00:24:00,VALID,918.233,VALID,0,VALID,100,VALID,0,VALID,20.6247,VALID,130,VALID,0.472917,
2007-04-15, 00:25:00,VALID,918.197,VALID,0,VALID,100,VALID,-0.0169808,VALID,20.599,VALID,133,VALID,0.630903,
2007-04-15, 00:26:00,VALID,918.174,VALID,0,VALID,100,VALID,0.0169808,VALID,20.589,VALID,130,VALID,0.273615,
2007-04-15, 00:27:00,VALID,918.146,VALID,0,VALID,100,VALID,-0.0339617,VALID,20.583,VALID,145,VALID,0.653343,
2007-04-15, 00:28:00,VALID,918.113,VALID,0,VALID,100,VALID,-0.0169808,VALID,20.5597,VALID,146,VALID,1.01072,
2007-04-15, 00:29:00,VALID,918.088,VALID,0,VALID,100,VALID,0,VALID,20.5435,VALID,161,VALID,0.692985,
2007-04-15, 00:30:00,VALID,918.055,VALID,0,VALID,100,VALID,-0.0169808,VALID,20.5403,VALID,145,VALID,1.0907,
2007-04-15, 00:31:00,VALID,918.026,VALID,0,VALID,100,VALID,-0.0339617,VALID,20.5443,VALID,153,VALID,0.859557,
2007-04-15, 00:32:00,VALID,917.998,VALID,0,VALID,100,VALID,-0.0169808,VALID,20.5346,VALID,154,VALID,0.710751,
2007-04-15, 00:33:00,VALID,917.975,VALID,0,VALID,100,VALID,-0.0169808,VALID,20.5311,VALID,144,VALID,0.951853,
2007-04-15, 00:34:00,VALID,917.946,VALID,0,VALID,100,VALID,-0.0169808,VALID,20.5281,VALID,150,VALID,1.03735,
2007-04-15, 00:35:00,VALID,917.93,VALID,0,VALID,100,VALID,-0.0339617,VALID,20.5113,VALID,150,VALID,1.19492,
2007-04-15, 00:36:00,VALID,917.911,VALID,0,VALID,100,VALID,-0.0169808,VALID,20.5151,VALID,156,VALID,1.21185,
2007-04-15, 00:37:00,VALID,917.897,VALID,0,VALID,100,VALID,-0.0169808,VALID,20.5113,VALID,166,VALID,1.01495,
2007-04-15, 00:38:00,VALID,917.861,VALID,0,VALID,100,VALID,0,VALID,20.5046,VALID,159,VALID,1.1343,
2007-04-15, 00:39:00,VALID,917.839,VALID,0,VALID,100,VALID,-0.0169808,VALID,20.5111,VALID,151,VALID,0.889291,
2007-04-15, 00:40:00,VALID,917.807,VALID,0,VALID,100,VALID,-0.0339617,VALID,20.5146,VALID,147,VALID,1.63021,
2007-04-15, 00:41:00,VALID,917.783,VALID,0,VALID,100,VALID,-0.0509425,VALID,20.5118,VALID,162,VALID,1.22711,
2007-04-15, 00:42:00,VALID,917.762,VALID,0,VALID,100,VALID,-0.0169808,VALID,20.5113,VALID,157,VALID,1.36839,
2007-04-15, 00:43:00,VALID,917.742,VALID,0,VALID,100,VALID,-0.0509425,VALID,20.5146,VALID,153,VALID,0.948219,
2007-04-15, 00:44:00,VALID,917.719,VALID,0,VALID,100,VALID,-0.0339617,VALID,20.517,VALID,159,VALID,0.843133,
2007-04-15, 00:45:00,VALID,917.705,VALID,0,VALID,100,VALID,-0.0339617,VALID,20.5208,VALID,153,VALID,1.13281,
2007-04-15, 00:46:00,VALID,917.68,VALID,0,VALID,100,VALID,0,VALID,20.5141,VALID,146,VALID,1.18502,
2007-04-15, 00:47:00,VALID,917.668,VALID,0,VALID,100,VALID,0,VALID,20.5246,VALID,157,VALID,0.94375,
2007-04-15, 00:48:00,VALID,917.664,VALID,0,VALID,100,VALID,-0.0169808,VALID,20.5276,VALID,147,VALID,1.25167,
2007-04-15, 00:49:00,VALID,917.65,VALID,0,VALID,100,VALID,-0.0169808,VALID,20.5276,VALID,150,VALID,1.068,
2007-04-15, 00:50:00,VALID,917.64,VALID,0,VALID,100,VALID,-0.0169808,VALID,20.5346,VALID,144,VALID,1.2004,
2007-04-15, 00:51:00,VALID,917.619,VALID,0,VALID,100,VALID,-0.0509425,VALID,20.5446,VALID,158,VALID,1.19717,
2007-04-15, 00:52:00,VALID,917.598,VALID,0,VALID,100,VALID,-0.0679233,VALID,20.5511,VALID,138,VALID,0.837358,
2007-04-15, 00:53:00,VALID,917.592,VALID,0,VALID,100,VALID,-0.0849042,VALID,20.547,VALID,157,VALID,1.08147,
2007-04-15, 00:54:00,VALID,917.575,VALID,0,VALID,100,VALID,-0.0339617,VALID,20.537,VALID,152,VALID,0.706745,
2007-04-15, 00:55:00,VALID,917.562,VALID,0,VALID,100,VALID,-0.0679233,VALID,20.5603,VALID,151,VALID,1.15952,
2007-04-15, 00:56:00,VALID,917.557,VALID,0,VALID,100,VALID,-0.0849042,VALID,20.5575,VALID,156,VALID,0.958807,
2007-04-15, 00:57:00,VALID,917.539,VALID,0,VALID,100,VALID,0,VALID,20.5568,VALID,152,VALID,0.756944,
2007-04-15, 00:58:00,VALID,917.517,VALID,0,VALID,100,VALID,-0.0339617,VALID,20.5573,VALID,157,VALID,1.09189,
2007-04-15, 00:59:00,VALID,917.521,VALID,0,VALID,100,VALID,-0.0849042,VALID,20.5505,VALID,161,VALID,0.872024,
2007-04-15, 01:00:00,VALID,917.504,VALID,0,VALID,100,VALID,-0.0679233,VALID,20.5478,VALID,170,VALID,0.766768,
2007-04-15, 01:01:00,VALID,917.476,VALID,0,VALID,100,VALID,-0.0509425,VALID,20.5443,VALID,163,VALID,1.00236,
2007-04-15, 01:02:00,VALID,917.488,VALID,0,VALID,100,VALID,-0.0509425,VALID,20.5408,VALID,171,VALID,0.74343,
2007-04-15, 01:03:00,VALID,917.461,VALID,0,VALID,100,VALID,-0.0509425,VALID,20.534,VALID,166,VALID,0.812128,
2007-04-15, 01:04:00,VALID,917.453,VALID,0,VALID,100,VALID,-0.0169808,VALID,20.5346,VALID,158,VALID,1.10014,
2007-04-15, 01:05:00,VALID,917.436,VALID,0,VALID,100,VALID,-0.0169808,VALID,20.5211,VALID,164,VALID,0.914232,
2007-04-15, 01:06:00,VALID,917.419,VALID,0,VALID,100,VALID,0,VALID,20.5178,VALID,151,VALID,0.914063,
2007-04-15, 01:07:00,VALID,917.395,VALID,0,VALID,100,VALID,-0.0169808,VALID,20.5081,VALID,165,VALID,0.93936,
2007-04-15, 01:08:00,VALID,917.372,VALID,0,VALID,100,VALID,-0.0339617,VALID,20.5078,VALID,166,VALID,1.07031,
2007-04-15, 01:09:00,VALID,917.357,VALID,0,VALID,100,VALID,-0.0339617,VALID,20.5151,VALID,169,VALID,0.646949,
2007-04-15, 01:10:00,VALID,917.342,VALID,0,VALID,100,VALID,-0.0679233,VALID,20.5011,VALID,173,VALID,0.763338,
2007-04-15, 01:11:00,VALID,917.308,VALID,0,VALID,100,VALID,-0.0849042,VALID,20.4989,VALID,172,VALID,0.621652,
2007-04-15, 01:12:00,VALID,917.29,VALID,0,VALID,100,VALID,-0.0849042,VALID,20.4886,VALID,148,VALID,0.970348,
2007-04-15, 01:13:00,VALID,917.251,VALID,0,VALID,100,VALID,0,VALID,20.4759,VALID,166,VALID,0.993786,
2007-04-15, 01:14:00,VALID,917.225,VALID,0,VALID,100,VALID,0.0679233,VALID,20.4546,VALID,177,VALID,0.916406,
2007-04-15, 01:15:00,VALID,917.187,VALID,0,VALID,100,VALID,0.101885,VALID,20.4449,VALID,172,VALID,0.690549,
2007-04-15, 01:16:00,VALID,917.158,VALID,0,VALID,100,VALID,0.101885,VALID,20.4414,VALID,169,VALID,0.542783,
2007-04-15, 01:17:00,VALID,917.132,VALID,0,VALID,100,VALID,0.0509425,VALID,20.4481,VALID,169,VALID,0.397166,
2007-04-15, 01:18:00,VALID,917.117,VALID,0,VALID,100,VALID,0.0849042,VALID,20.4416,VALID,180,VALID,0.0446429,
2007-04-15, 01:19:00,VALID,917.112,VALID,0,VALID,100,VALID,0.0849042,VALID,20.4481,VALID,180,VALID,0.213986,
2007-04-15, 01:20:00,VALID,917.093,VALID,0,VALID,100,VALID,0.101885,VALID,20.4481,VALID,170,VALID,0.749273,
2007-04-15, 01:21:00,VALID,917.074,VALID,0,VALID,100,VALID,0.0509425,VALID,20.4314,VALID,171,VALID,0.16276,
2007-04-15, 01:22:00,VALID,917.053,VALID,0,VALID,100,VALID,0.0849042,VALID,20.4321,VALID,173,VALID,0.355655,
2007-04-15, 01:23:00,VALID,917.053,VALID,0,VALID,100,VALID,0.0849042,VALID,20.4219,VALID,178,VALID,0.386379,
2007-04-15, 01:24:00,VALID,917.027,VALID,0,VALID,100,VALID,0.0679233,VALID,20.4254,VALID,178,VALID,0.180051,
2007-04-15, 01:25:00,VALID,917.005,VALID,0,VALID,100,VALID,0.0679233,VALID,20.4289,VALID,178,VALID,0.0556176,
2007-04-15, 01:26:00,VALID,917.012,VALID,0,VALID,100,VALID,0.0849042,VALID,20.4219,VALID,178,VALID,0.213605,
2007-04-15, 01:27:00,VALID,917.006,VALID,0,VALID,100,VALID,0.0509425,VALID,20.4324,VALID,178,VALID,0.325076,
2007-04-15, 01:28:00,VALID,917.001,VALID,0,VALID,100,VALID,0.0169808,VALID,20.4194,VALID,178,VALID,0.129084,
2007-04-15, 01:29:00,VALID,916.991,VALID,0,VALID,100,VALID,0,VALID,20.4172,VALID,178,VALID,0.269436,
2007-04-15, 01:30:00,VALID,916.996,VALID,0,VALID,100,VALID,0,VALID,20.4105,VALID,178,VALID,0.105129,
2007-04-15, 01:31:00,VALID,916.997,VALID,0,VALID,100,VALID,0.0169808,VALID,20.4199,VALID,178,VALID,0.430596,
2007-04-15, 01:32:00,VALID,916.995,VALID,0,VALID,100,VALID,0,VALID,20.4002,VALID,177,VALID,0.147166,
2007-04-15, 01:33:00,VALID,916.99,VALID,0,VALID,100,VALID,0.0509425,VALID,20.3902,VALID,177,VALID,0.00234375,
2007-04-15, 01:34:00,VALID,916.982,VALID,0,VALID,100,VALID,0,VALID,20.391,VALID,177,VALID,0.0565476,
2007-04-15, 01:35:00,VALID,917,VALID,0,VALID,100,VALID,0.0509425,VALID,20.3897,VALID,177,VALID,0,
2007-04-15, 01:36:00,VALID,916.997,VALID,0,VALID,100,VALID,0,VALID,20.4099,VALID,125,VALID,0.173399,
2007-04-15, 01:37:00,VALID,917.014,VALID,0,VALID,100,VALID,0.0679233,VALID,20.4132,VALID,70,VALID,0.541921,
2007-04-15, 01:38:00,VALID,917.022,VALID,0,VALID,100,VALID,-0.0169808,VALID,20.4167,VALID,53,VALID,0.708939,
2007-04-15, 01:39:00,VALID,917.021,VALID,0,VALID,100,VALID,0,VALID,20.375,VALID,52,VALID,0.535156,
2007-04-15, 01:40:00,VALID,917.033,VALID,0,VALID,100,VALID,0.0169808,VALID,20.3418,VALID,45,VALID,0.546875,
2007-04-15, 01:41:00,VALID,917.021,VALID,0,VALID,100,VALID,0.0509425,VALID,20.3515,VALID,43,VALID,0.276101,
2007-04-15, 01:42:00,VALID,917.038,VALID,0,VALID,100,VALID,0.0169808,VALID,20.358,VALID,33,VALID,0.363839,
2007-04-15, 01:43:00,VALID,917.05,VALID,0,VALID,100,VALID,0.0509425,VALID,20.3518,VALID,33,VALID,0.157315,
2007-04-15, 01:44:00,VALID,917.059,VALID,0,VALID,100,VALID,0,VALID,20.3583,VALID,33,VALID,0.121094,
2007-04-15, 01:45:00,VALID,917.049,VALID,0,VALID,100,VALID,0.0169808,VALID,20.3615,VALID,33,VALID,0.414063,
2007-04-15, 01:46:00,VALID,917.053,VALID,0,VALID,100,VALID,0,VALID,20.3678,VALID,33,VALID,0.547408,
2007-04-15, 01:47:00,VALID,917.053,VALID,0,VALID,100,VALID,0.0339617,VALID,20.3126,VALID,38,VALID,0.666424,
2007-04-15, 01:48:00,VALID,917.055,VALID,0,VALID,100,VALID,0.0339617,VALID,20.3091,VALID,38,VALID,0.583519,
2007-04-15, 01:49:00,VALID,917.07,VALID,0,VALID,100,VALID,0.0169808,VALID,20.2996,VALID,38,VALID,0.33133,
2007-04-15, 01:50:00,VALID,917.062,VALID,0,VALID,100,VALID,0,VALID,20.2769,VALID,38,VALID,0.101563,
2007-04-15, 01:51:00,VALID,917.082,VALID,0,VALID,100,VALID,0.0169808,VALID,20.2834,VALID,38,VALID,0.147866,
2007-04-15, 01:52:00,VALID,917.087,VALID,0,VALID,100,VALID,0.0339617,VALID,20.2966,VALID,50,VALID,0.557884,
2007-04-15, 01:53:00,VALID,917.086,VALID,0,VALID,100,VALID,0,VALID,20.2901,VALID,57,VALID,0.600195,
2007-04-15, 01:54:00,VALID,917.092,VALID,0,VALID,100,VALID,0.0509425,VALID,20.2801,VALID,57,VALID,0.332304,
2007-04-15, 01:55:00,VALID,917.083,VALID,0,VALID,100,VALID,0.0509425,VALID,20.2834,VALID,57,VALID,0.44308,
2007-04-15, 01:56:00,VALID,917.074,VALID,0,VALID,100,VALID,0.0169808,VALID,20.2931,VALID,59,VALID,0.556108,
2007-04-15, 01:57:00,VALID,917.073,VALID,0,VALID,100,VALID,0,VALID,20.3166,VALID,61,VALID,0.460938,
2007-04-15, 01:58:00,VALID,917.067,VALID,0,VALID,100,VALID,0,VALID,20.3128,VALID,61,VALID,0.387429,
2007-04-15, 01:59:00,VALID,917.047,VALID,0,VALID,100,VALID,0,VALID,20.3026,VALID,61,VALID,0.0699314,
2007-04-15, 02:00:00,VALID,917.032,VALID,0,VALID,100,VALID,-0.0169808,VALID,20.3163,VALID,61,VALID,0,
2007-04-15, 02:01:00,VALID,917.027,VALID,0,VALID,100,VALID,-0.0169808,VALID,20.3258,VALID,61,VALID,0,
2007-04-15, 02:02:00,VALID,917.008,VALID,0,VALID,100,VALID,0.0169808,VALID,20.3423,VALID,61,VALID,0.056891,
2007-04-15, 02:03:00,VALID,917.011,VALID,0,VALID,100,VALID,0.0339617,VALID,20.3513,VALID,61,VALID,0.166016,
2007-04-15, 02:04:00,VALID,916.992,VALID,0,VALID,100,VALID,0.0339617,VALID,20.3842,VALID,61,VALID,0.182776,
2007-04-15, 02:05:00,VALID,916.983,VALID,0,VALID,100,VALID,0.0169808,VALID,20.3775,VALID,61,VALID,0.113032,
2007-04-15, 02:06:00,VALID,916.972,VALID,0,VALID,100,VALID,0.0339617,VALID,20.3515,VALID,61,VALID,0.00508721,
2007-04-15, 02:07:00,VALID,916.963,VALID,0,VALID,100,VALID,0.0339617,VALID,20.3245,VALID,61,VALID,0.141992,
2007-04-15, 02:08:00,VALID,916.952,VALID,0,VALID,100,VALID,0,VALID,20.358,VALID,61,VALID,0.21855,
2007-04-15, 02:09:00,VALID,916.952,VALID,0,VALID,100,VALID,0.0169808,VALID,20.3675,VALID,61,VALID,0.244531,
2007-04-15, 02:10:01,VALID,916.943,VALID,0,VALID,100,VALID,0.0679233,VALID,20.3707,VALID,61,VALID,0.449929,
2007-04-15, 02:11:00,VALID,916.93,VALID,0,VALID,100,VALID,0,VALID,20.371,VALID,61,VALID,0.362981,
2007-04-15, 02:12:00,VALID,916.918,VALID,0,VALID,100,VALID,0.0169808,VALID,20.3777,VALID,61,VALID,0.330669,
2007-04-15, 02:13:00,VALID,916.916,VALID,0,VALID,100,VALID,0,VALID,20.3877,VALID,59,VALID,0.477706,
2007-04-15, 02:14:00,VALID,916.906,VALID,0,VALID,100,VALID,-0.101885,VALID,20.3758,VALID,59,VALID,0.469113,
2007-04-15, 02:15:01,VALID,916.899,VALID,0,VALID,100,VALID,-0.101885,VALID,20.3466,VALID,59,VALID,0.493118,
2007-04-15, 02:16:00,VALID,916.896,VALID,0,VALID,100,VALID,-0.101885,VALID,20.3336,VALID,59,VALID,0.304878,
2007-04-15, 02:17:00,VALID,916.869,VALID,0,VALID,100,VALID,-0.101885,VALID,20.3236,VALID,59,VALID,0.0926847,
2007-04-15, 02:18:00,VALID,916.871,VALID,0,VALID,100,VALID,-0.0679233,VALID,20.2947,VALID,59,VALID,0.194169,
2007-04-15, 02:19:00,VALID,916.849,VALID,0,VALID,100,VALID,-0.0849042,VALID,20.2752,VALID,59,VALID,0.417225,
2007-04-15, 02:20:00,VALID,916.825,VALID,0,VALID,100,VALID,-0.0849042,VALID,20.2427,VALID,68,VALID,0.460742,
2007-04-15, 02:21:00,VALID,916.816,VALID,0,VALID,100,VALID,-0.0509425,VALID,20.223,VALID,70,VALID,0.477307,
2007-04-15, 02:22:00,VALID,916.783,VALID,0,VALID,100,VALID,-0.0339617,VALID,20.2198,VALID,70,VALID,0.433203,
2007-04-15, 02:23:01,VALID,916.756,VALID,0,VALID,100,VALID,-0.0849042,VALID,20.207,VALID,99,VALID,0.604936,
2007-04-15, 02:24:00,VALID,916.74,VALID,0,VALID,100,VALID,-0.0849042,VALID,20.207,VALID,122,VALID,0.557413,
2007-04-15, 02:25:00,VALID,916.733,VALID,0,VALID,100,VALID,-0.101885,VALID,20.217,VALID,131,VALID,0.608259,
2007-04-15, 02:26:01,VALID,916.713,VALID,0,VALID,100,VALID,-0.101885,VALID,20.2103,VALID,154,VALID,0.821378,
2007-04-15, 02:27:00,VALID,916.695,VALID,0,VALID,100,VALID,-0.101885,VALID,20.2103,VALID,150,VALID,0.807813,
2007-04-15, 02:28:00,VALID,916.68,VALID,0,VALID,100,VALID,-0.0849042,VALID,20.2068,VALID,150,VALID,1.11192,
2007-04-15, 02:29:00,VALID,916.672,VALID,0,VALID,100,VALID,-0.0339617,VALID,20.2192,VALID,146,VALID,1.07598,
2007-04-15, 02:30:00,VALID,916.654,VALID,0,VALID,100,VALID,-0.0339617,VALID,20.2295,VALID,146,VALID,0.920387,
2007-04-15, 02:31:00,VALID,916.636,VALID,0,VALID,100,VALID,-0.0169808,VALID,20.2165,VALID,119,VALID,0.910866,
2007-04-15, 02:32:01,VALID,916.635,VALID,0,VALID,100,VALID,-0.0339617,VALID,20.2028,VALID,116,VALID,0.480469,
2007-04-15, 02:33:00,VALID,916.62,VALID,0,VALID,100,VALID,-0.0169808,VALID,20.206,VALID,128,VALID,0.791992,
2007-04-15, 02:34:01,VALID,916.605,VALID,0,VALID,100,VALID,-0.0339617,VALID,20.1933,VALID,124,VALID,0.721168,
2007-04-15, 02:35:00,VALID,916.585,VALID,0,VALID,100,VALID,-0.0169808,VALID,20.1868,VALID,105,VALID,0.816134,
2007-04-15, 02:36:00,VALID,916.573,VALID,0,VALID,100,VALID,-0.0679233,VALID,20.1508,VALID,115,VALID,0.829985,
2007-04-15, 02:37:01,VALID,916.566,VALID,0,VALID,100,VALID,-0.0169808,VALID,20.1344,VALID,108,VALID,0.528988,
2007-04-15, 02:38:00,VALID,916.554,VALID,0,VALID,100,VALID,-0.0509425,VALID,20.1246,VALID,108,VALID,0.158067,
2007-04-15, 02:39:01,VALID,916.534,VALID,0,VALID,100,VALID,-0.0169808,VALID,20.1543,VALID,96,VALID,0.562691,
2007-04-15, 02:40:00,VALID,916.541,VALID,0,VALID,100,VALID,-0.0509425,VALID,20.1346,VALID,95,VALID,0.542683,
2007-04-15, 02:41:00,VALID,916.539,VALID,0,VALID,100,VALID,-0.0339617,VALID,20.1151,VALID,116,VALID,0.644436,
2007-04-15, 02:42:00,VALID,916.539,VALID,0,VALID,100,VALID,-0.0339617,VALID,20.1154,VALID,101,VALID,0.275391,
2007-04-15, 02:43:01,VALID,916.528,VALID,0,VALID,100,VALID,-0.0339617,VALID,20.1089,VALID,100,VALID,0.155869,
2007-04-15, 02:44:01,VALID,916.526,VALID,0,VALID,100,VALID,0.0339617,VALID,20.1171,VALID,104,VALID,0.426153,
2007-04-15, 02:45:00,VALID,916.514,VALID,0,VALID,100,VALID,0.0849042,VALID,20.0976,VALID,102,VALID,0.223474,
2007-04-15, 02:46:00,VALID,916.488,VALID,0,VALID,100,VALID,0.0849042,VALID,20.0842,VALID,102,VALID,0.365473,
2007-04-15, 02:47:01,VALID,916.458,VALID,0,VALID,100,VALID,0.0339617,VALID,20.0784,VALID,120,VALID,0.353161,
2007-04-15, 02:48:00,VALID,916.438,VALID,0,VALID,100,VALID,0.0509425,VALID,20.0647,VALID,158,VALID,0.357986,
2007-04-15, 02:49:00,VALID,916.418,VALID,0,VALID,100,VALID,0.0849042,VALID,20.055,VALID,158,VALID,0.119004,
2007-04-15, 02:50:00,VALID,916.383,VALID,0,VALID,100,VALID,0.0509425,VALID,20.0587,VALID,158,VALID,0,
2007-04-15, 02:51:00,VALID,916.368,VALID,0,VALID,100,VALID,0.0679233,VALID,20.0617,VALID,158,VALID,0.0803329,
2007-04-15, 02:52:00,VALID,916.34,VALID,0,VALID,100,VALID,0.0509425,VALID,20.0679,VALID,158,VALID,0.153409,
2007-04-15, 02:53:00,VALID,916.317,VALID,0,VALID,100,VALID,0.0679233,VALID,20.0585,VALID,158,VALID,0.225038,
2007-04-15, 02:54:01,VALID,916.304,VALID,0,VALID,100,VALID,0.0849042,VALID,20.045,VALID,158,VALID,0.149306,
2007-04-15, 02:55:01,VALID,916.289,VALID,0,VALID,100,VALID,0.101885,VALID,20.0382,VALID,158,VALID,0.229167,
2007-04-15, 02:56:01,VALID,916.277,VALID,0,VALID,100,VALID,0.101885,VALID,20.0385,VALID,158,VALID,0.0456321,
2007-04-15, 02:57:00,VALID,916.267,VALID,0,VALID,100,VALID,0.0849042,VALID,20.0355,VALID,158,VALID,0.207127,
2007-04-15, 02:58:01,VALID,916.243,VALID,0,VALID,100,VALID,0.0849042,VALID,20.0225,VALID,179,VALID,0.313101,
2007-04-15, 02:59:01,VALID,916.232,VALID,0,VALID,100,VALID,0,VALID,20.0108,VALID,193,VALID,0.283008,
2007-04-15, 03:00:01,VALID,916.221,VALID,0,VALID,100,VALID,0,VALID,20.0173,VALID,193,VALID,0.213844,
2007-04-15, 03:01:01,VALID,916.204,VALID,0,VALID,100,VALID,0,VALID,20.0043,VALID,193,VALID,0.178646,
2007-04-15, 03:02:01,VALID,916.208,VALID,0,VALID,100,VALID,0,VALID,19.9941,VALID,193,VALID,0,
2007-04-15, 03:03:01,VALID,916.187,VALID,0,VALID,100,VALID,0,VALID,19.9946,VALID,193,VALID,0.00690407,
2007-04-15, 03:04:01,VALID,916.182,VALID,0,VALID,100,VALID,-0.0339617,VALID,20.0011,VALID,193,VALID,0.065407,
2007-04-15, 03:05:01,VALID,916.194,VALID,0,VALID,100,VALID,0,VALID,20.0011,VALID,193,VALID,0.0497332,
2007-04-15, 03:06:01,VALID,916.205,VALID,0,VALID,100,VALID,-0.0509425,VALID,19.9818,VALID,201,VALID,0.530556,
2007-04-15, 03:07:01,VALID,916.214,VALID,0,VALID,100,VALID,0.0169808,VALID,19.9586,VALID,213,VALID,0.644832,
2007-04-15, 03:08:01,VALID,916.217,VALID,0,VALID,100,VALID,0,VALID,19.9524,VALID,216,VALID,0.532493,
2007-04-15, 03:09:01,VALID,916.216,VALID,0,VALID,100,VALID,-0.0339617,VALID,19.9491,VALID,216,VALID,0.447027,
2007-04-15, 03:10:01,VALID,916.196,VALID,0,VALID,100,VALID,0,VALID,19.9362,VALID,220,VALID,0.495536,
2007-04-15, 03:11:01,VALID,916.193,VALID,0,VALID,100,VALID,0,VALID,19.9299,VALID,233,VALID,0.589472,
2007-04-15, 03:12:01,VALID,916.173,VALID,0,VALID,100,VALID,-0.0169808,VALID,19.9202,VALID,249,VALID,0.66424,
2007-04-15, 03:13:01,VALID,916.166,VALID,0,VALID,100,VALID,0,VALID,19.9199,VALID,222,VALID,0.784268,
2007-04-15, 03:14:00,VALID,916.167,VALID,0,VALID,100,VALID,-0.0509425,VALID,19.9137,VALID,206,VALID,0.770461,
2007-04-15, 03:15:00,VALID,916.171,VALID,0,VALID,100,VALID,0,VALID,19.9135,VALID,185,VALID,0.852273,
2007-04-15, 03:16:00,VALID,916.172,VALID,0,VALID,100,VALID,0,VALID,19.9135,VALID,185,VALID,0.663881,
2007-04-15, 03:17:00,VALID,916.182,VALID,0,VALID,100,VALID,0,VALID,19.9007,VALID,179,VALID,0.652253,
2007-04-15, 03:18:00,VALID,916.191,VALID,0,VALID,100,VALID,-0.0339617,VALID,19.8942,VALID,151,VALID,0.483445,
2007-04-15, 03:19:00,VALID,916.186,VALID,0.2,VALID,100,VALID,0,VALID,19.8907,VALID,143,VALID,0.506771,
2007-04-15, 03:20:00,VALID,916.184,VALID,0,VALID,100,VALID,0,VALID,19.8648,VALID,128,VALID,0.763626,
2007-04-15, 03:21:00,VALID,916.174,VALID,0,VALID,100,VALID,-0.0339617,VALID,19.8486,VALID,129,VALID,0.820499,
2007-04-15, 03:22:00,VALID,916.18,VALID,0,VALID,100,VALID,-0.0169808,VALID,19.8323,VALID,142,VALID,0.375558,
2007-04-15, 03:23:00,VALID,916.165,VALID,0,VALID,100,VALID,-0.0169808,VALID,19.8428,VALID,143,VALID,0.290551,
2007-04-15, 03:24:00,VALID,916.167,VALID,0,VALID,100,VALID,0,VALID,19.8194,VALID,137,VALID,0.629261,
2007-04-15, 03:25:00,VALID,916.151,VALID,0,VALID,100,VALID,0,VALID,19.8096,VALID,136,VALID,0.538021,
2007-04-15, 03:26:00,VALID,916.139,VALID,0,VALID,100,VALID,0,VALID,19.8031,VALID,134,VALID,0.838415,
2007-04-15, 03:27:00,VALID,916.127,VALID,0,VALID,100,VALID,0,VALID,19.7834,VALID,118,VALID,0.93006,
2007-04-15, 03:28:00,VALID,916.092,VALID,0,VALID,100,VALID,0,VALID,19.7837,VALID,114,VALID,0.879261,
2007-04-15, 03:29:00,VALID,916.092,VALID,0,VALID,100,VALID,-0.0339617,VALID,19.7674,VALID,110,VALID,0.786222,
2007-04-15, 03:30:00,VALID,916.084,VALID,0,VALID,100,VALID,0,VALID,19.7707,VALID,114,VALID,0.769804,
2007-04-15, 03:31:00,VALID,916.078,VALID,0,VALID,100,VALID,0,VALID,19.7505,VALID,108,VALID,0.792333,
2007-04-15, 03:32:00,VALID,916.062,VALID,0,VALID,100,VALID,-0.0169808,VALID,19.7545,VALID,119,VALID,0.701527,
2007-04-15, 03:33:00,VALID,916.078,VALID,0,VALID,100,VALID,-0.0169808,VALID,19.7545,VALID,135,VALID,0.660156,
2007-04-15, 03:34:00,VALID,916.088,VALID,0,VALID,100,VALID,-0.0169808,VALID,19.761,VALID,136,VALID,0.36875,
2007-04-15, 03:35:00,VALID,916.083,VALID,0,VALID,100,VALID,-0.0509425,VALID,19.7707,VALID,139,VALID,0.0835069,
2007-04-15, 03:36:00,VALID,916.079,VALID,0,VALID,100,VALID,-0.0339617,VALID,19.7807,VALID,133,VALID,0.494093,
2007-04-15, 03:37:00,VALID,916.08,VALID,0,VALID,100,VALID,0,VALID,19.7772,VALID,126,VALID,0.718932,
2007-04-15, 03:38:00,VALID,916.066,VALID,0,VALID,100,VALID,-0.0169808,VALID,19.7739,VALID,120,VALID,0.863186,
2007-04-15, 03:39:00,VALID,916.067,VALID,0,VALID,100,VALID,0,VALID,19.7804,VALID,115,VALID,0.869913,
2007-04-15, 03:40:00,VALID,916.038,VALID,0,VALID,100,VALID,-0.0169808,VALID,19.7737,VALID,100,VALID,1.26563,